1998-067VU

Last updated on Sat Jul 29 2023 00:02:07 GMT+0000 (Coordinated Universal Time)

1 57316U 98067VU 23209.35959620 .00058861 00000+0 93829-3 0 9998 2 57316 51.6393 124.3019 0000407 55.2400 304.8628 15.52663064 3415

Satellite not in orbit

1998-067VU